| time (UTC) | temp F | wind direction | speed knots | gust knots | rain 1hr in | rain 24hr in | rain mn in | humidity % | barometer mb |
| 20260506180108 | 55 | 21 | 4.3 | 8.7 | 0.00 | 0.00 | 0.00 | 86 | 1015.0 |
| 20260506174517 | 55 | 5 | 5.2 | 9.6 | 0.00 | 0.00 | 0.00 | 85 | 1015.1 |
| 20260506173021 | 55 | 355 | 7.0 | 10.4 | 0.00 | 0.00 | 0.00 | 86 | 1014.2 |
| 20260506171521 | 55 | 22 | 8.7 | 17.4 | 0.00 | 0.00 | 0.00 | 86 | 1012.7 |
| 20260506170100 | 54 | 346 | 7.8 | 13.0 | 0.00 | 0.00 | 0.00 | 87 | 1013.0 |
| 20260506164551 | 54 | 5 | 6.1 | 10.4 | 0.00 | 0.00 | 0.00 | 87 | 1013.1 |
| 20260506163059 | 54 | 37 | 4.3 | 8.7 | 0.00 | 0.00 | 0.00 | 87 | 1014.4 |
| 20260506161607 | 54 | 15 | 6.1 | 10.4 | 0.00 | 0.00 | 0.00 | 88 | 1013.9 |
| 20260506160003 | 53 | 5 | 5.2 | 12.2 | 0.00 | 0.00 | 0.00 | 88 | 1013.9 |
| 20260506154526 | 53 | 336 | 3.5 | 12.2 | 0.00 | 0.00 | 0.00 | 89 | 1013.9 |
| 20260506153052 | 52 | 360 | 7.0 | 11.3 | 0.00 | 0.00 | 0.00 | 88 | 1013.4 |
| 20260506151506 | 53 | 360 | 4.3 | 8.7 | 0.00 | 0.00 | 0.00 | 87 | 1012.7 |
| 20260506150019 | 53 | 360 | 4.3 | 7.0 | 0.00 | 0.00 | 0.00 | 86 | 1014.8 |
| 20260506144551 | 54 | 360 | 3.5 | 7.8 | 0.00 | 0.00 | 0.00 | 85 | 1014.9 |
| 20260506143055 | 54 | 14 | 8.7 | 12.2 | 0.00 | 0.00 | 0.00 | 83 | 1014.5 |
| 20260506141605 | 54 | 360 | 9.6 | 13.9 | 0.00 | 0.00 | 0.00 | 82 | 1014.7 |
| 20260506140021 | 55 | 360 | 7.8 | 13.0 | 0.00 | 0.00 | 0.00 | 82 | 1014.3 |
| 20260506134550 | 55 | 10 | 8.7 | 17.4 | 0.00 | 0.00 | 0.00 | 81 | 1013.1 |
| 20260506133128 | 56 | 360 | 8.7 | 14.8 | 0.00 | 0.00 | 0.00 | 81 | 1012.8 |
| 20260506131513 | 57 | 9 | 8.7 | 12.2 | 0.00 | 0.00 | 0.00 | 80 | 1012.9 |
| 20260506130040 | 57 | 27 | 7.0 | 13.0 | 0.00 | 0.00 | 0.00 | 81 | 1012.3 |
| 20260506124606 | 57 | 360 | 7.0 | 10.4 | 0.00 | 0.00 | 0.00 | 81 | 1011.9 |
| 20260506123010 | 57 | 9 | 6.1 | 11.3 | 0.00 | 0.00 | 0.00 | 81 | 1011.9 |
| 20260506121532 | 57 | 360 | 6.1 | 9.6 | 0.00 | 0.00 | 0.00 | 81 | 1011.5 |
| 20260506120108 | 58 | 9 | 4.3 | 11.3 | 0.00 | 0.00 | 0.00 | 81 | 1011.3 |
| 20260506114616 | 58 | 13 | 4.3 | 8.7 | 0.00 | 0.00 | 0.00 | 82 | 1011.2 |
| 20260506113007 | 58 | 32 | 5.2 | 11.3 | 0.00 | 0.00 | 0.00 | 82 | 1011.3 |
| 20260506111521 | 58 | 335 | 8.7 | 12.2 | 0.00 | 0.00 | 0.00 | 82 | 1011.1 |
| 20260506110043 | 59 | 18 | 8.7 | 12.2 | 0.00 | 0.00 | 0.00 | 83 | 1011.0 |
| 20260506104637 | 59 | 22 | 5.2 | 10.4 | 0.00 | 0.00 | 0.00 | 83 | 1010.5 |
| 20260506103023 | 60 | 360 | 4.3 | 7.8 | 0.00 | 0.00 | 0.00 | 82 | 1010.3 |
| 20260506101529 | 60 | 18 | 4.3 | 8.7 | 0.00 | 0.00 | 0.00 | 81 | 1010.1 |
| 20260506100049 | 60 | 20 | 5.2 | 10.4 | 0.00 | 0.00 | 0.00 | 81 | 1009.8 |
| 20260506094509 | 61 | 5 | 6.1 | 9.6 | 0.00 | 0.00 | 0.00 | 81 | 1009.4 |
| 20260506093019 | 61 | 29 | 6.1 | 8.7 | 0.00 | 0.00 | 0.00 | 81 | 1009.4 |
| 20260506091536 | 61 | 347 | 4.3 | 8.7 | 0.00 | 0.00 | 0.00 | 80 | 1009.3 |
| 20260506090050 | 62 | 355 | 4.3 | 9.6 | 0.00 | 0.00 | 0.00 | 80 | 1009.2 |
| 20260506084601 | 62 | 348 | 5.2 | 9.6 | 0.00 | 0.00 | 0.00 | 80 | 1009.2 |
| 20260506083002 | 62 | 344 | 5.2 | 8.7 | 0.00 | 0.00 | 0.00 | 80 | 1009.2 |
| 20260506081509 | 63 | 344 | 6.1 | 9.6 | 0.00 | 0.00 | 0.00 | 79 | 1009.1 |
| 20260506073041 | 64 | 30 | 4.3 | 8.7 | 0.00 | 0.00 | 0.00 | 79 | 1008.6 |
| 20260506071547 | 64 | 34 | 3.5 | 7.0 | 0.00 | 0.00 | 0.00 | 79 | 1008.7 |
| 20260506061509 | 66 | 338 | 3.5 | 7.8 | 0.00 | 0.00 | 0.00 | 78 | 1008.7 |
| 20260506050117 | 67 | 355 | 2.6 | 7.8 | 0.00 | 0.00 | 0.00 | 75 | 1008.4 |
| 20260506044515 | 68 | 340 | 4.3 | 8.7 | 0.00 | 0.00 | 0.00 | 74 | 1008.4 |
| 20260506043031 | 68 | 21 | 5.2 | 11.3 | 0.00 | 0.00 | 0.00 | 74 | 1008.6 |
| 20260506041553 | 69 | 348 | 5.2 | 11.3 | 0.00 | 0.00 | 0.00 | 74 | 1008.6 |
| 20260506040104 | 69 | 340 | 6.1 | 11.3 | 0.00 | 0.00 | 0.00 | 75 | 1008.5 |
| 20260506034508 | 70 | 343 | 7.0 | 10.4 | 0.00 | 0.00 | 0.00 | 75 | 1008.0 |
| 20260506033027 | 71 | 319 | 2.6 | 5.2 | 0.00 | 0.00 | 0.00 | 74 | 1007.7 |
| 20260506031540 | 72 | 334 | 3.5 | 5.2 | 0.00 | 0.00 | 0.00 | 73 | 1007.2 |
| 20260506030043 | 72 | 350 | 2.6 | 7.8 | 0.00 | 0.00 | 0.00 | 72 | 1006.7 |
| 20260506024550 | 73 | 311 | 2.6 | 8.7 | 0.00 | 0.00 | 0.00 | 72 | 1006.9 |
| 20260506023118 | 74 | 330 | 3.5 | 7.8 | 0.00 | 0.00 | 0.00 | 70 | 1006.3 |
| 20260506021505 | 75 | 277 | 3.5 | 7.8 | 0.00 | 0.00 | 0.00 | 70 | 1006.1 |
| 20260506020010 | 76 | 344 | 7.0 | 14.8 | 0.00 | 0.00 | 0.00 | 69 | 1005.4 |
| 20260506014522 | 78 | 314 | 7.0 | 11.3 | 0.00 | 0.00 | 0.00 | 67 | 1004.7 |
| 20260506013024 | 80 | 299 | 3.5 | 9.6 | 0.00 | 0.00 | 0.00 | 67 | 1004.0 |
| 20260506011529 | 82 | 355 | 6.1 | 14.8 | 0.00 | 0.00 | 0.00 | 67 | 1003.9 |
| 20260506010044 | 83 | 237 | 3.5 | 13.9 | 0.00 | 0.00 | 0.00 | 74 | 1003.6 |
| 20260506004535 | 84 | 158 | 7.8 | 13.0 | 0.00 | 0.00 | 0.00 | 72 | 1003.0 |
| 20260506003048 | 87 | 165 | 7.0 | 9.6 | 0.00 | 0.00 | 0.00 | 67 | 1002.9 |
| 20260506001604 | 90 | 169 | 7.8 | 11.3 | 0.00 | 0.00 | 0.00 | 61 | 1003.0 |
| 20260506000054 | 92 | 193 | 2.6 | 5.2 | 0.00 | 0.00 | 0.00 | 48 | 1002.9 |
| 20260505234616 | 92 | 232 | 1.7 | 6.1 | 0.00 | 0.00 | 0.00 | 48 | 1002.9 |
| 20260505233009 | 92 | 180 | 2.6 | 5.2 | 0.00 | 0.00 | 0.00 | 47 | 1002.8 |
| 20260505231526 | 92 | 236 | 3.5 | 8.7 | 0.00 | 0.00 | 0.00 | 46 | 1002.9 |
| 20260505230030 | 92 | 244 | 2.6 | 7.8 | 0.00 | 0.00 | 0.00 | 49 | 1002.9 |
| 20260505224552 | 91 | 215 | 4.3 | 8.7 | 0.00 | 0.00 | 0.00 | 51 | 1002.9 |
| 20260505223117 | 91 | 217 | 4.3 | 8.7 | 0.00 | 0.00 | 0.00 | 50 | 1002.8 |
| 20260505221502 | 91 | 237 | 6.1 | 10.4 | 0.00 | 0.00 | 0.00 | 51 | 1002.9 |
| 20260505220008 | 91 | 222 | 6.1 | 9.6 | 0.00 | 0.00 | 0.00 | 51 | 1002.9 |
| 20260505214516 | 91 | 222 | 4.3 | 8.7 | 0.00 | 0.00 | 0.00 | 52 | 1003.0 |
| 20260505213031 | 90 | 219 | 5.2 | 7.8 | 0.00 | 0.00 | 0.00 | 51 | 1002.9 |
| 20260505211541 | 90 | 211 | 7.8 | 10.4 | 0.00 | 0.00 | 0.00 | 52 | 1002.9 |
| 20260505210045 | 90 | 201 | 6.1 | 12.2 | 0.00 | 0.00 | 0.00 | 53 | 1003.3 |
| 20260505204609 | 90 | 190 | 6.1 | 10.4 | 0.00 | 0.00 | 0.00 | 54 | 1003.6 |
| 20260505203132 | 90 | 213 | 6.1 | 11.3 | 0.00 | 0.00 | 0.00 | 56 | 1003.5 |
| 20260505201508 | 89 | 211 | 7.0 | 11.3 | 0.00 | 0.00 | 0.00 | 57 | 1004.0 |
| 20260505200027 | 89 | 244 | 7.0 | 14.8 | 0.00 | 0.00 | 0.00 | 57 | 1004.2 |
| 20260505194550 | 88 | 236 | 7.8 | 14.8 | 0.00 | 0.00 | 0.00 | 57 | 1004.3 |
| 20260505193054 | 88 | 209 | 8.7 | 15.6 | 0.00 | 0.00 | 0.00 | 59 | 1004.3 |
| 20260505191605 | 88 | 204 | 8.7 | 11.3 | 0.00 | 0.00 | 0.00 | 62 | 1004.5 |
| 20260505190011 | 87 | 241 | 7.0 | 15.6 | 0.00 | 0.00 | 0.00 | 63 | 1004.5 |
| 20260505184534 | 87 | 203 | 8.7 | 15.6 | 0.00 | 0.00 | 0.00 | 66 | 1004.7 |
| 20260505183048 | 86 | 221 | 7.0 | 16.5 | 0.00 | 0.00 | 0.00 | 64 | 1004.9 |
| 20260505181600 | 85 | 184 | 9.6 | 15.6 | 0.00 | 0.00 | 0.00 | 65 | 1005.0 |